Regional Weather Roundup
Issued by NWS Upton, NY

Current Version | Previous Version | Text Only | Print | Product List | Glossary On
Versions: 1 2 3 4 5 6 7 8 9 10 11 12 13 14 15 16 17 18 19 20 21 22 23 24 25 26 27 28 29 30 31 32 33 34 35 36 37 38 39 40 41 42 43 44 45 46 47 48 49 50
000
ASUS41 KOKX 010304
RWROKX

REGIONAL WEATHER ROUNDUP
NATIONAL WEATHER SERVICE NEW YORK NY
1100 PM EDT FRI JUL 31 2015

NOTE: "FAIR" INDICATES FEW OR NO CLOUDS BELOW 12,000 FEET WITH NO
SIGNIFICANT WEATHER AND/OR OBSTRUCTIONS TO VISIBILITY.

NYZ071-072-176-178-NJZ106-104-010400-
NEW YORK CITY METRO AREA


CITY           SKY/WX    TMP DP  RH WIND       PRES   REMARKS
CENTRAL PARK   CLEAR     81  54  39 MISG      29.86R
LAGUARDIA APRT CLEAR     84  54  35 SW7       29.82S
KENNEDY INTL   CLEAR     77  62  59 S7        29.84R
NEWARK/LIBERTY CLEAR     82  58  43 SW9       29.83R
BRNX BOT. GARD   N/A     77  54  44 W2        29.85R
TETERBORO      CLEAR     77  55  46 S3        29.82R
$$

NYZ177-179-078>081-010400-
LONG ISLAND NEW YORK

CITY           SKY/WX    TMP DP  RH WIND       PRES   REMARKS
FARMINGDALE    CLEAR     77  67  71 SW7       29.84R
ISLIP          CLEAR     73  67  81 SW5       29.83R
SHIRLEY        CLEAR     73  68  84 SW5       29.84R
WESTHAMPTON    CLEAR     68  65  90 CALM      29.85R
MONTAUK POINT    N/A     74  64  71 CALM      29.84R
$$

NYZ052-065-067-010400-
HUDSON VALLEY

CITY           SKY/WX    TMP DP  RH WIND       PRES   REMARKS
WHITE PLAINS   CLEAR     70  64  81 CALM      29.84R
NEWBURGH       CLEAR     72  59  64 CALM      29.84S
MONTGOMERY     CLEAR     67  62  84 CALM      29.83R
POUGHKEEPSIE   CLEAR     68  61  78 CALM      29.81R
ALBANY         PTCLDY    69  57  65 S3        29.79R
$$

NJZ001-105-106-008-010-013-015-019>022-104-010400-
NEW JERSEY

CITY           SKY/WX    TMP DP  RH WIND       PRES   REMARKS
NEWARK/LIBERTY CLEAR     82  58  43 SW9       29.83R
TETERBORO      CLEAR     77  55  46 S3        29.82R
CALDWELL       CLEAR     74  57  55 CALM      29.84R
MORRISTOWN     CLEAR     68  61  77 CALM      29.84S
SOMERVILLE     CLEAR     67  61  81 CALM      29.83R
SUSSEX         CLEAR     66  62  87 CALM      29.85R
ANDOVER          N/A     66  64  93 SW3       29.86R
TRENTON        CLEAR     76  59  55 VRB5      29.85R
MILLVILLE      CLEAR     67  63  87 W3        29.88R
ATLANTIC CITY  CLEAR     76  63  64 SW6       29.87S
WRIGHTSTOWN    CLEAR     70  63  78 VRB2      29.84R
TOMS RIVER       N/A     70  63  78 CALM      29.87R
BELMAR         CLEAR     75  61  60 SW6       29.86R
$$

PAZ047>061-062-071-010400-
EASTERN PENNSYLVANIA

CITY           SKY/WX    TMP DP  RH WIND       PRES   REMARKS
PHILADELPHIA   CLEAR     79  62  56 CALM      29.87R
ALLENTOWN      CLEAR     70  61  73 SW5       29.85S
SCRANTON       CLEAR     71  59  65 S3        29.86R
$$

CTZ002-004>006-009-010-012-RIZ004-006-007-MAZ004-011-015-010400-
SOUTHERN NEW ENGLAND
 IN CT

CITY           SKY/WX    TMP DP  RH WIND       PRES   REMARKS
BRADLEY INTL   CLEAR     69  61  75 W3        29.80S
HARTFORD       CLEAR     71  63  75 CALM      29.81R
DANBURY        CLEAR     65  58  78 CALM      29.85S
WTRBRY/OXFORD  CLEAR     66  57  72 CALM      29.86S
BRIDGEPORT     CLEAR     76  66  71 CALM      29.82S
MERIDEN        CLEAR     66  59  78 CALM      29.82S
NEW HAVEN      CLEAR     70  62  76 CALM      29.83R
CHESTER        FAIR      72  59  64 W5        29.85R
GROTON         CLEAR     70  66  87 CALM      29.82R
WILLIMANTIC    CLEAR     67  62  84 CALM      29.83R

 IN RI

CITY           SKY/WX    TMP DP  RH WIND       PRES   REMARKS
PROVIDENCE     CLEAR     70  61  73 SW3       29.82R
BLOCK ISLAND     N/A     72  64  78 W9        29.84R
WESTERLY       CLEAR     68  65  90 CALM      29.83R

 IN MA

CITY           SKY/WX    TMP DP  RH WIND       PRES   REMARKS
BOSTON         CLEAR     78  55  44 W8        29.80R
WORCESTER      CLEAR     68  53  58 W7        29.84S
WESTFIELD      CLEAR     63  60  90 CALM      29.81S
PROVINCETOWN   CLEAR     66  59  77 SW3       29.81R
NANTUCKET      CLEAR     70  67  90 SW7       29.82S
$$

ANZ330-335-338-340-345-350-353-355-010400-
COASTAL MARINE OBSERVATIONS


STATION/POSITION TIME  SKY/WX   TEMP    WIND        PRES    VSBY  WAVE
                                AIR SEA DIR/SP/G                  HT/PER
                 (UTC)          (F)     (DEG/KT/KT) (MB)    (MI)  (FT/S)
NY HARB ENTRANCE 0150            78 77  210/ 10/ 12 1009.6          3/ 7
4S FIRE IS       NOT AVBL
20S FIRE ISLAND  0150            78 76  230/ 10/ 12 1009.8          4/ 7
GREAT SOUTH BAY  0230            78 81  230/ 12/ 12   N/A
23SW MTP         0250            76 74  240/ 10/ 12 1009.8          4/ 7
HUDSON CANYON    NOT AVBL
KINGS POINT      0200            78 71  160/  1/  2 1009.2
EXECUTION ROCKS  0200            74     130/  2/  2   N/A
CENTRAL LI SOUND NOT AVBL
EASTERN LI SOUND 0200            71 69  190/  6/  6   N/A
ROBBINS REEF     0200            83     240/  5/  6 1009.0
$$


>>>>>>>>>>>>>>>>>>>>>>>>>>>> KEY <<<<<<<<<<<<<<<<<<<<<<<<<<<
>                                                          <
>     SKY/WX - SKY CONDITION/PRESENT WEATHER               <
>     TMP    - TEMPERATURE IN FAHRENHEIT                   <
>     DP     - DEWPOINT IN FAHRENHEIT                      <
>     RH     - RELATIVE HUMIDITY IN PERCENT                <
>     WIND   - DIRECTION AND SPEED IN MPH                  <
>     PRES   - MEAN SEA LEVEL PRESSURE IN INCHES OF HG     <
>     WCI    - WIND CHILL INDEX                            <
>     VSB    - VISIBILITY IN MILES                         <
>     HX     - HEAT INDEX                                  <
>     TC     - TEMPERATURE IN CELSIUS                      <
>     VRB    - VARIABLE WIND DIRECTION                     <
>                                                          <
>>>>>>>>>>>>>>>>>>>>>>>>>>>> KEY <<<<<<<<<<<<<<<<<<<<<<<<<<<





USA.gov is the U.S. government's official web portal to all federal, state and local government web resources and services.